Location: Frydek-Mistek
(49.6830°N, 18.3330°E)
Time: 14:02:11
(UTC+02:00)

ISS - Pass Details

Date: 25 April 2026
Orbit: 414 x 424 km, 51.6° (Epoch: 18 May)

Event Time Altitude Azimuth Distance (km) Brightness Sun altitude
Exits shadow 04:44:55 10° 256° (WSW) 1,490 -1.6 -8.1°
Maximum altitude 04:48:16 82° 344° (NNW) 429 -3.7 -7.6°
Drops below altitude 10° 04:51:40 10° 73° (ENE) 1,509 0.6 -7.2°
Sets 04:53:47 0° 74° (ENE) 2,377 2.0 -6.9°
